Content
SEND FEEDBACK

Daily
Averages
Monthly
Summary
Turkmenistan

ASHGABAT, TURKMENISTAN


Home > Asia > Turkmenistan
Elevation: 775 feet     Latitude: 37 58N     Longitude: 058 20E

WEATHER
 
SELECT A DAY
Number of Records: 181,150;   Date Range: 3/15/97 - 10/20/14
 
SHARE

PRINT THIS DATA

[ ← Previous Day ]
WEATHER ALMANAC - JULY 3, 2013
[ Next Day → ]
[ °C ]   °F
Weather ElementAverageHighLow
Temperature88 °F98.6 °F (4:00 pm)73 °F (5:00 am)
Dewpoint46.4 °F55 °F (5:00 pm)42.8 °F (1:00 am)
Humidity22.2 %38 % (4:00 am)15 % (5:00 pm)
Barometer29.63 in29.71 in (10:00 pm)29.52 in (2:00 am)
Wind Speed6.7 mph15.7 mph (9:00 pm)
Weather ElementAverage
Visibility6.2 mi
Wind DirectionS (176.6 °)

Weather ElementTotal
Precipitation---
Cooling Degree Days20.8 (Base 65)
Growing Degree Days35.8 (Base 50)
Averaged from 32 records on July 3, 2013
WEATHER CONDITIONS BREAKOUT
WIND DIRECTION BREAKOUT
WEATHER BY HOUR - JULY 3, 2013
[ °C ]   °F
Local TimeTemperatureDewpointHumidityBarometerVisibilityWind DirectionWind SpeedGust SpeedPrecipitationEventsConditions
1:00 AM82.4 °F42.8 °F25 %29.53 in6.2 miSSW (200°)4.5 mphClear
2:00 AM81.0 °F48.0 °F21 %29.52 in6.0 miSSW (200°)4.5 mph
2:00 AM80.6 °F44.6 °F28 %29.53 in6.2 miSSW (200°)4.5 mphClear
3:00 AM80.6 °F42.8 °F26 %29.53 in6.2 miVariable2.2 mphClear
4:00 AM75.2 °F48.2 °F38 %29.53 in6.2 miVariable2.2 mphClear
5:00 AM73.0 °F53.0 °F38 %29.55 in6.0 miSSW (200°)4.5 mph
5:00 AM77.0 °F42.8 °F29 %29.56 in6.2 miSSW (200°)4.5 mphClear
6:00 AM73.4 °F44.6 °F36 %29.56 in6.2 miVariable2.2 mphClear
7:00 AM80.6 °F46.4 °F30 %29.62 in6.2 miNorth (10°)8.9 mphClear
8:00 AM81.0 °F49.0 °F22 %29.64 in6.0 miWNW (300°)11.2 mphScattered Clouds
8:00 AM82.4 °F42.8 °F25 %29.68 in6.2 miWNW (300°)11.2 mphPartly Cloudy
9:00 AM84.2 °F46.4 °F27 %29.68 in6.2 miNW (320°)6.7 mphClear
10:00 AM87.8 °F46.4 °F24 %29.68 in6.2 miNorth (360°)6.7 mphClear
11:00 AM88.0 °F50.0 °F18 %29.65 in6.0 miNorth6.7 mph
11:00 AM89.6 °F46.4 °F22 %29.68 in6.2 miNNW (340°)8.9 mphClear
12:00 PM91.4 °F48.2 °F23 %29.68 in6.2 miNW (320°)8.9 mphPartly Cloudy
1:00 PM93.2 °F46.4 °F20 %29.68 in6.2 miNorth (360°)6.7 mphPartly Cloudy
2:00 PM94.0 °F54.0 °F16 %29.65 in6.0 miNorth8.9 mph
2:00 PM95.0 °F44.6 °F18 %29.68 in6.2 miNorth (360°)6.7 mphClear
3:00 PM96.8 °F44.6 °F17 %29.65 in6.2 miNE (40°)6.7 mphPartly Cloudy
4:00 PM98.6 °F44.6 °F16 %29.65 in6.2 miWNW (290°)6.7 mphScattered Clouds
5:00 PM98.0 °F55.0 °F15 %29.60 in6.0 miWNW (290°)6.7 mphScattered Clouds
5:00 PM96.8 °F42.8 °F16 %29.62 in6.2 miWest (260°)4.5 mphScattered Clouds
6:00 PM98.6 °F42.8 °F15 %29.62 in6.2 miVariable2.2 mphScattered Clouds
7:00 PM96.8 °F44.6 °F17 %29.62 in6.2 miWest (280°)6.7 mphMostly Cloudy
8:00 PM95.0 °F54.0 °F16 %29.61 in6.0 miWest (260°)8.9 mphPartly Cloudy
8:00 PM95.0 °F46.4 °F19 %29.62 in6.2 miWest (260°)8.9 mphMostly Cloudy
9:00 PM93.2 °F42.8 °F17 %29.65 in6.2 miNorth (10°)15.7 mphMostly Cloudy
9:30 PM91.4 °F42.8 °F18 %29.68 in6.2 miNE (40°)8.9 mphMostly Cloudy
10:00 PM89.6 °F42.8 °F20 %29.71 in6.2 miENE (60°)8.9 mphMostly Cloudy
11:00 PM88.0 °F50.0 °F18 %29.70 in6.0 miEast (90°)4.5 mphPartly Cloudy
11:00 PM87.8 °F42.8 °F21 %29.71 in6.2 miEast (100°)4.5 mphMostly Cloudy
Hourly data recorded from UTAA, located miles away from Ashgabat, Turkmenistan







STORIES FROM OUR PARTNERS